{"data":{"norad_id":63007,"epoch":"2026-05-25T05:04:59.748960Z","epoch_age_seconds":70835,"freshness":"FRESH","line1":"1 63007U 25032C   26145.21180265  .00191674  00000+0  14625-2 0  9998","line2":"2 63007  42.9998  93.6535 0001608 263.1575  96.9110 15.70849053 74250","mean_motion":15.70849053,"eccentricity":0.0001608,"inclination_deg":42.9998,"raan_deg":93.6535,"arg_perigee_deg":263.1575,"mean_anomaly_deg":96.911,"bstar":0.0014625,"rev_number":7425,"period_min":91.670170170068,"perigee_km":355.38626184974,"apogee_km":357.55211119933,"semimajor_km":6734.6061865245,"source":"CELESTRAK","updated_at":"2026-05-25T13:38:19.835283Z"}}